Voltar ao catálogo

CZ-6A DEB

AtivoPO
NORAD 61147·DEBRIS·🇨🇳 China

Lançado Aug 6, 2024 de Taiyuan Satellite Launch Center

Loading…

Próximas Passagens (próximas 24 horas)

TLE

AtualizadoSource: Space-Track

Época: Sep 14, 2026, 00:11 UTC

1 61147U 24140QR  26257.00770672  .00000109  00000-0  52103-4 0  9996
2 61147  88.9596 262.8183 0084500 304.5918  54.7316 14.10484045106131

Acompanhe CZ-6A DEB em tempo real com AllMySat

Download on the App Store